This demonstration page uses our WeatherBlox Daily Observations layout. Learn more.

Left ArrowRight Arrow

36.17497, -115.13722

Hourly Observations for September 23, 2015

Temp ( °F °C ) Dew Point ( °F °C ) Humidity (%) Winds ( mph kmh ) Pressure ( in mb ) Visibility ( mi km ) Precip ( " mm )
12:53 am 00:53 Clear 78 25.6 57 13.9 48 48 ESE 8 13 29.86 1011 10 16 N/A
1:53 am 01:53 Clear 77 25 58 14.4 52 52 N 7 11 29.86 1011 10 16 N/A
2:53 am 02:53 Clear 77 25 58 14.4 52 52 NE 6 9 29.86 1011 10 16 N/A
3:53 am 03:53 Clear 76 24.4 58 14.4 54 54 NNE 7 11 29.87 1012 10 16 N/A
4:53 am 04:53 Clear 75 23.9 58 14.4 55 55 ENE 7 11 29.89 1012 10 16 N/A
5:53 am 05:53 Clear 75 23.9 58 14.4 55 55 NE 6 9 29.91 1013 10 16 N/A
6:53 am 06:53 Sunny 74 23.3 58 14.4 57 57 N 5 7 29.94 1014 10 16 N/A
7:53 am 07:53 Sunny 77 25 58 14.4 52 52 NE 5 7 29.96 1015 10 16 N/A
8:53 am 08:53 Sunny 80 26.7 58 14.4 47 47 N N/A 29.97 1015 10 16 N/A
9:53 am 09:53 Sunny 81 27.2 57 13.9 44 44 ESE 6 9 29.98 1015 10 16 N/A
10:53 am 10:53 Sunny 84 28.9 57 13.9 40 40 ESE 5 7 29.97 1015 10 16 N/A
12:53 pm 12:53 Sunny 89 31.7 54 12.2 30 30 SE 7 11 29.94 1014 10 16 N/A
1:53 pm 13:53 Sunny 91 32.8 53 11.7 27 27 SSE 8 13 29.91 1013 10 16 N/A
2:53 pm 14:53 Sunny 93 33.9 53 11.7 26 26 SE 5 7 29.87 1012 10 16 N/A
3:53 pm 15:53 Sunny 94 34.4 50 10 22 22 S 5 7 29.85 1011 10 16 N/A
4:53 pm 16:53 Sunny 95 35 46 7.8 19 19 SE 6 9 29.85 1011 10 16 N/A
5:53 pm 17:53 Sunny 95 35 46 7.8 19 19 ESE 5 7 29.85 1011 10 16 N/A
6:53 pm 18:53 Clear 93 33.9 45 7.2 19 19 N N/A 29.85 1011 10 16 N/A
7:53 pm 19:53 Clear 90 32.2 46 7.8 22 22 N N/A 29.86 1011 10 16 N/A
8:53 pm 20:53 Clear 87 30.6 47 8.3 25 25 NW 7 11 29.88 1012 10 16 N/A
9:53 pm 21:53 Clear 84 28.9 50 10 31 31 NW 6 9 29.90 1012 10 16 N/A
10:53 pm 22:53 Clear 81 27.2 49 9.4 33 33 NNW 5 7 29.91 1013 10 16 N/A
11:53 pm 23:53 Clear 80 26.7 49 9.4 34 34 NW 5 7 29.91 1013 10 16 N/A

Powered by AerisWeather